Torna al catalogo

SL-14 DEB

AttivoPO
NORAD 47082·DEBRIS·🇷🇺 Russia

Lanciato Aug 15, 1991 da Plesetsk Cosmodrome

Loading…

Prossimi Passaggi (prossime 24 ore)

TLE

AggiornatoSource: Space-Track

Epoca: Sep 14, 2026, 07:31 UTC

1 47082U 91056DG  26257.31352269  .00000434  00000-0  11761-2 0  9994
2 47082  82.6148 109.4148 0040688  56.0617 304.4360 13.11963414280362

Traccia SL-14 DEB in tempo reale con AllMySat

Download on the App Store